Hourly Weather Komotini

Today, 15 July, Wednesday

Time Temperature Precipitation Wind Pressure Humidity
00:00 +18°C° 0 mm 3 mps 758 mmHg 63%
01:00 +17°C° 0 mm 3 mps 758 mmHg 64%
02:00 +17°C° 0 mm 2 mps 758 mmHg 67%
03:00 +17°C° 0 mm 2 mps 758 mmHg 67%
04:00 +16°C° 0 mm 2 mps 758 mmHg 67%
05:00 +16°C° 0 mm 2 mps 758 mmHg 68%
06:00 +18°C° 0 mm 2 mps 758 mmHg 62%
07:00 +20°C° 0 mm 2 mps 758 mmHg 56%
08:00 +23°C° 0 mm 2 mps 759 mmHg 50%
09:00 +25°C° 0 mm 2 mps 758 mmHg 47%
10:00 +26°C° 0 mm 2 mps 758 mmHg 45%
11:00 +27°C° 0 mm 2 mps 758 mmHg 42%
12:00 +28°C° 0 mm 2 mps 758 mmHg 40%
13:00 +29°C° 0 mm 3 mps 758 mmHg 39%
14:00 +30°C° 0 mm 3 mps 758 mmHg 37%
15:00 +30°C° 0 mm 3 mps 757 mmHg 38%
16:00 +30°C° 0 mm 2 mps 757 mmHg 39%
17:00 +30°C° 0 mm 2 mps 757 mmHg 39%
18:00 +28°C° 0 mm 2 mps 757 mmHg 45%
19:00 +26°C° 0 mm 1 mps 757 mmHg 51%
20:00 +23°C° 0 mm 1 mps 757 mmHg 57%
21:00 +23°C° 0 mm 1 mps 757 mmHg 61%
22:00 +21°C° 0 mm 2 mps 757 mmHg 65%
23:00 +20°C° 0 mm 2 mps 757 mmHg 69%

Tomorrow, 16 July, Thursday

Time Temperature Precipitation Wind Pressure Humidity
00:00 +20°C° 0 mm 2 mps 757 mmHg 71%
01:00 +19°C° 0 mm 2 mps 757 mmHg 74%
02:00 +20°C° 0 mm 1 mps 757 mmHg 77%
03:00 +19°C° 0 mm 1 mps 757 mmHg 76%
04:00 +19°C° 0 mm 1 mps 756 mmHg 75%
05:00 +19°C° 0 mm 1 mps 756 mmHg 74%
06:00 +21°C° 0 mm 1 mps 756 mmHg 68%
07:00 +23°C° 0 mm 1 mps 756 mmHg 61%
08:00 +25°C° 0 mm 1 mps 756 mmHg 55%
09:00 +26°C° 0 mm 1 mps 756 mmHg 51%
10:00 +28°C° 0 mm 2 mps 756 mmHg 48%
11:00 +29°C° 0 mm 2 mps 756 mmHg 44%
12:00 +29°C° 0.2 mm 2 mps 755 mmHg 44%
13:00 +30°C° 0.2 mm 3 mps 755 mmHg 45%
14:00 +30°C° 0.2 mm 3 mps 755 mmHg 45%
15:00 +29°C° 0.2 mm 3 mps 755 mmHg 49%
16:00 +28°C° 0.2 mm 3 mps 754 mmHg 52%
17:00 +28°C° 0.2 mm 3 mps 754 mmHg 56%
18:00 +26°C° 0 mm 3 mps 754 mmHg 59%
19:00 +25°C° 0 mm 3 mps 754 mmHg 62%
20:00 +23°C° 0 mm 2 mps 754 mmHg 65%
21:00 +23°C° 0 mm 2 mps 755 mmHg 66%
22:00 +21°C° 0 mm 2 mps 755 mmHg 67%
23:00 +21°C° 0 mm 2 mps 755 mmHg 68%

Day after tomorrow, 17 July, Friday

Time Temperature Precipitation Wind Pressure Humidity
00:00 +20°C° 0 mm 2 mps 755 mmHg 69%
01:00 +20°C° 0 mm 2 mps 755 mmHg 70%
02:00 +19°C° 0 mm 2 mps 755 mmHg 71%
03:00 +19°C° 0 mm 2 mps 755 mmHg 72%
04:00 +19°C° 0 mm 2 mps 755 mmHg 72%
05:00 +18°C° 0 mm 2 mps 755 mmHg 73%
06:00 +21°C° 0 mm 2 mps 755 mmHg 67%
07:00 +24°C° 0 mm 2 mps 755 mmHg 61%
08:00 +26°C° 0 mm 2 mps 755 mmHg 54%
09:00 +27°C° 0 mm 2 mps 755 mmHg 50%
10:00 +28°C° 0 mm 2 mps 755 mmHg 47%
11:00 +30°C° 0 mm 3 mps 755 mmHg 43%
12:00 +30°C° 0 mm 3 mps 755 mmHg 41%
13:00 +31°C° 0 mm 3 mps 754 mmHg 39%
14:00 +33°C° 0 mm 3 mps 754 mmHg 37%
15:00 +33°C° 0 mm 3 mps 754 mmHg 38%
16:00 +33°C° 0 mm 3 mps 754 mmHg 38%
17:00 +31°C° 0 mm 3 mps 753 mmHg 38%
18:00 +29°C° 0 mm 3 mps 753 mmHg 44%
19:00 +27°C° 0 mm 3 mps 754 mmHg 49%
20:00 +25°C° 0 mm 2 mps 754 mmHg 55%
21:00 +24°C° 0 mm 2 mps 754 mmHg 56%
22:00 +23°C° 0 mm 2 mps 754 mmHg 57%
23:00 +21°C° 0 mm 2 mps 755 mmHg 58%

18 July, Saturday

Time Temperature Precipitation Wind Pressure Humidity
00:00 +21°C° 0 mm 2 mps 754 mmHg 60%
01:00 +20°C° 0 mm 2 mps 754 mmHg 63%
02:00 +19°C° 0 mm 2 mps 754 mmHg 65%
03:00 +19°C° 0 mm 3 mps 754 mmHg 67%
04:00 +19°C° 0 mm 3 mps 754 mmHg 69%
05:00 +18°C° 0 mm 3 mps 754 mmHg 71%
06:00 +20°C° 0 mm 3 mps 754 mmHg 65%
07:00 +22°C° 0 mm 3 mps 754 mmHg 58%
08:00 +25°C° 0 mm 3 mps 754 mmHg 52%
09:00 +27°C° 0 mm 4 mps 754 mmHg 47%
10:00 +28°C° 0 mm 4 mps 754 mmHg 43%
11:00 +30°C° 0 mm 5 mps 754 mmHg 39%
12:00 +32°C° 0 mm 4 mps 754 mmHg 37%
13:00 +33°C° 0 mm 4 mps 754 mmHg 35%
14:00 +34°C° 0 mm 4 mps 753 mmHg 34%
15:00 +34°C° 0 mm 4 mps 753 mmHg 34%
16:00 +34°C° 0 mm 4 mps 753 mmHg 35%
17:00 +34°C° 0 mm 4 mps 752 mmHg 36%
18:00 +31°C° 0 mm 3 mps 753 mmHg 43%
19:00 +29°C° 0 mm 3 mps 753 mmHg 49%
20:00 +27°C° 0 mm 3 mps 753 mmHg 56%
21:00 +26°C° 0 mm 2 mps 753 mmHg 61%
22:00 +25°C° 0 mm 2 mps 754 mmHg 67%
23:00 +24°C° 0 mm 2 mps 754 mmHg 72%

19 July, Sunday

Time Temperature Precipitation Wind Pressure Humidity
00:00 +23°C° 0 mm 2 mps 754 mmHg 75%
01:00 +21°C° 0 mm 2 mps 754 mmHg 79%
02:00 +21°C° 0 mm 3 mps 754 mmHg 82%
03:00 +20°C° 0 mm 3 mps 754 mmHg 84%
04:00 +20°C° 0 mm 3 mps 754 mmHg 85%
05:00 +20°C° 0 mm 2 mps 754 mmHg 86%
06:00 +21°C° 0 mm 3 mps 754 mmHg 80%
07:00 +24°C° 0 mm 3 mps 754 mmHg 73%
08:00 +26°C° 0 mm 3 mps 754 mmHg 67%
09:00 +27°C° 0 mm 3 mps 755 mmHg 61%
10:00 +29°C° 0 mm 3 mps 755 mmHg 56%
11:00 +30°C° 0 mm 3 mps 755 mmHg 50%
12:00 +31°C° 0 mm 3 mps 754 mmHg 47%
13:00 +33°C° 0 mm 3 mps 754 mmHg 45%
14:00 +33°C° 0 mm 3 mps 754 mmHg 42%
15:00 +33°C° 0 mm 3 mps 754 mmHg 42%
16:00 +32°C° 0 mm 2 mps 753 mmHg 42%
17:00 +32°C° 0 mm 2 mps 753 mmHg 42%
18:00 +31°C° 0 mm 2 mps 753 mmHg 48%
19:00 +29°C° 0 mm 2 mps 753 mmHg 54%
20:00 +27°C° 0 mm 2 mps 754 mmHg 60%
21:00 +26°C° 0 mm 2 mps 754 mmHg 63%
22:00 +25°C° 0 mm 2 mps 754 mmHg 66%
23:00 +25°C° 0 mm 3 mps 754 mmHg 69%

20 July, Monday

Time Temperature Precipitation Wind Pressure Humidity
00:00 +24°C° 0 mm 3 mps 754 mmHg 73%
01:00 +24°C° 0 mm 3 mps 754 mmHg 76%
02:00 +23°C° 0 mm 2 mps 754 mmHg 80%
03:00 +23°C° 0 mm 2 mps 754 mmHg 80%
04:00 +23°C° 0 mm 2 mps 754 mmHg 81%
05:00 +21°C° 0 mm 2 mps 754 mmHg 82%
06:00 +24°C° 0 mm 2 mps 754 mmHg 75%
07:00 +26°C° 0 mm 2 mps 754 mmHg 68%
08:00 +28°C° 0 mm 2 mps 755 mmHg 61%
09:00 +29°C° 0.2 mm 2 mps 755 mmHg 58%
10:00 +30°C° 0.2 mm 2 mps 755 mmHg 55%
11:00 +31°C° 0.2 mm 2 mps 755 mmHg 51%
12:00 +31°C° 0.1 mm 2 mps 754 mmHg 51%
13:00 +31°C° 0.1 mm 2 mps 754 mmHg 50%
14:00 +31°C° 0.1 mm 2 mps 754 mmHg 50%
15:00 +31°C° 0 mm 2 mps 754 mmHg 50%
16:00 +31°C° 0 mm 2 mps 753 mmHg 50%
17:00 +30°C° 0 mm 2 mps 753 mmHg 51%
18:00 +29°C° 0 mm 2 mps 754 mmHg 54%
19:00 +28°C° 0 mm 2 mps 754 mmHg 58%
20:00 +26°C° 0 mm 2 mps 754 mmHg 62%
21:00 +25°C° 0 mm 2 mps 754 mmHg 62%
22:00 +24°C° 0 mm 2 mps 755 mmHg 62%
23:00 +24°C° 0 mm 3 mps 755 mmHg 62%
Show more